Temp
-13 -14 -13 -13 -12 -11 -10 -10 -10 -10 -10 -10 -9 -9 -9 -9 -9 -9 -9 -9 -8 -8 -8 -7 -7 -6 -6 -6 -6 -6 -6 -6 -6 -6 -6 -6 -6 -6 -5 -5 -5 -6 -5 -5 -5 -5 -5 -6 -6
-13 -14 -14 -13 -12 -11 -10 -10 -10 -10 -10 -10 -10 -10 -9 -9 -9 -9 -9 -9 -8 -8 -8 -8 -7 -7 -6 -6 -6 -6 -6 -6 -6 -6 -6 -6 -6 -6 -6 -6 -6 -6 -5 -5 -5 -5 -5 -6 -6
-14 -14 -14 -13 -12 -11 -11 -10 -10 -10 -10 -9 -10 -9 -9 -9 -9 -9 -9 -9 -9 -9 -8 -8 -7 -7 -7 -6 -6 -6 -6 -6 -6 -6 -6 -6 -6 -6 -6 -6 -6 -6 -6 -5 -6 -6 -6 -6 -6
-14 -14 -13 -13 -12 -12 -10 -11 -11 -11 -10 -10 -10 -10 -9 -9 -10 -10 -9 -9 -9 -9 -9 -8 -8 -7 -7 -7 -7 -7 -7 -7 -7 -7 -6 -6 -6 -6 -6 -6 -6 -6 -6 -6 -6 -6 -6 -6 -6
-15 -15 -14 -13 -13 -12 -12 -11 -11 -11 -11 -10 -10 -10 -10 -10 -10 -10 -9 -9 -9 -9 -9 -9 -8 -8 -7 -7 -7 -7 -7 -7 -7 -7 -7 -6 -6 -6 -6 -6 -6 -6 -6 -6 -6 -6 -6 -6 -6
-15 -15 -14 -13 -13 -13 -12 -12 -11 -11 -12 -12 -11 -10 -10 -10 -10 -10 -10 -10 -9 -9 -9 -9 -9 -8 -8 -8 -8 -7 -7 -7 -7 -7 -7 -6 -6 -7 -7 -7 -6 -6 -6 -6 -6 -6 -6 -6 -6
-15 -15 -15 -14 -13 -13 -13 -13 -12 -12 -12 -12 -11 -11 -11 -11 -11 -10 -10 -10 -9 -9 -9 -9 -9 -9 -9 -8 -8 -8 -8 -8 -7 -7 -7 -7 -7 -7 -7 -7 -7 -7 -7 -7 -7 -7 -7 -6 -7
-15 -15 -15 -14 -13 -13 -13 -14 -13 -12 -12 -12 -12 -11 -11 -11 -11 -10 -10 -10 -10 -9 -9 -9 -9 -9 -9 -8 -8 -8 -8 -8 -8 -8 -8 -8 -7 -7 -7 -7 -7 -7 -7 -7 -7 -7 -7 -7 -7
-16 -15 -15 -14 -14 -14 -13 -13 -14 -12 -12 -12 -12 -12 -11 -11 -11 -11 -11 -10 -10 -10 -10 -10 -10 -9 -9 -8 -8 -8 -8 -8 -8 -8 -8 -8 -8 -8 -7 -7 -7 -7 -7 -7 -7 -7 -7 -7 -8
-16 -15 -15 -14 -14 -14 -13 -13 -14 -13 -12 -12 -12 -12 -11 -11 -11 -11 -11 -11 -11 -10 -10 -10 -9 -9 -9 -8 -8 -8 -8 -8 -8 -8 -8 -8 -8 -8 -8 -8 -8 -8 -8 -8 -8 -8 -8 -8 -8
-15 -15 -15 -15 -14 -14 -14 -14 -13 -13 -13 -12 -12 -12 -11 -11 -11 -11 -11 -10 -9 -9 -10 -10 -10 -9 -9 -9 -9 -9 -8 -8 -8 -8 -8 -8 -8 -8 -8 -8 -8 -8 -8 -8 -8 -8 -8 -8 -8
-15 -16 -15 -15 -15 -14 -14 -14 -13 -13 -13 -13 -13 -12 -12 -11 -11 -11 -11 -11 -11 -10 -10 -10 -10 -10 -9 -9 -9 -9 -9 -9 -8 -8 -8 -8 -8 -8 -8 -8 -8 -8 -8 -8 -8 -8 -8 -8 -8
-15 -16 -15 -15 -15 -15 -15 -14 -14 -13 -13 -13 -13 -13 -12 -11 -11 -11 -11 -11 -11 -10 -10 -10 -10 -10 -10 -9 -9 -9 -9 -9 -9 -9 -8 -8 -8 -8 -8 -8 -8 -8 -8 -8 -8 -8 -8 -8 -9
-16 -15 -16 -16 -16 -16 -15 -15 -14 -14 -13 -13 -13 -13 -13 -12 -12 -11 -11 -11 -11 -11 -10 -10 -10 -10 -10 -10 -9 -9 -9 -9 -9 -9 -9 -9 -9 -8 -8 -8 -8 -8 -8 -8 -8 -8 -9 -9 -9
-16 -16 -16 -16 -15 -15 -16 -15 -14 -14 -13 -13 -13 -13 -13 -12 -12 -12 -11 -11 -11 -11 -11 -10 -10 -10 -10 -10 -10 -10 -9 -9 -9 -9 -9 -9 -9 -9 -9 -9 -9 -9 -9 -9 -9 -9 -9 -9 -9
-17 -17 -16 -16 -15 -15 -15 -14 -14 -14 -14 -13 -13 -13 -13 -13 -12 -12 -12 -11 -11 -11 -11 -11 -11 -10 -10 -10 -10 -10 -10 -10 -10 -10 -9 -9 -9 -9 -9 -9 -9 -9 -9 -9 -9 -9 -9 -9 -9
-18 -17 -17 -17 -16 -15 -15 -15 -15 -14 -14 -13 -13 -13 -13 -14 -13 -12 -12 -12 -12 -12 -12 -12 -11 -11 -11 -11 -10 -10 -10 -11 -10 -10 -10 -9 -9 -9 -9 -9 -9 -9 -9 -9 -9 -9 -9 -10 -10
-16 -17 -17 -16 -16 -16 -15 -15 -15 -14 -14 -14 -13 -13 -13 -13 -14 -13 -12 -13 -12 -12 -12 -12 -11 -12 -11 -11 -11 -11 -11 -11 -10 -10 -10 -10 -10 -10 -10 -10 -10 -9 -9 -10 -10 -10 -9 -10 -10
-17 -17 -16 -16 -16 -16 -16 -15 -15 -14 -14 -14 -14 -13 -13 -13 -14 -14 -13 -13 -13 -13 -13 -13 -12 -11 -11 -12 -11 -11 -10 -11 -11 -10 -10 -10 -10 -10 -10 -10 -10 -10 -10 -10 -10 -10 -10 -10 -10
-17 -17 -17 -16 -17 -16 -16 -15 -15 -14 -14 -14 -14 -13 -13 -13 -14 -13 -14 -13 -13 -13 -13 -13 -13 -12 -12 -12 -12 -11 -11 -11 -11 -10 -10 -10 -10 -10 -10 -10 -10 -10 -10 -10 -10 -10 -10 -10 -10
-18 -17 -17 -17 -17 -17 -16 -16 -15 -15 -15 -15 -14 -14 -14 -13 -14 -13 -13 -13 -13 -14 -13 -13 -13 -13 -12 -12 -12 -12 -12 -11 -11 -11 -10 -10 -10 -11 -11 -11 -11 -10 -10 -10 -10 -10 -10 -10 -11
-18 -18 -17 -17 -17 -17 -16 -15 -15 -15 -15 -15 -15 -14 -14 -13 -13 -13 -14 -13 -13 -13 -13 -13 -13 -13 -13 -13 -13 -13 -13 -12 -12 -11 -11 -11 -11 -11 -11 -11 -11 -11 -11 -11 -11 -11 -11 -11 -11
-19 -18 -18 -18 -17 -17 -17 -16 -16 -15 -15 -15 -15 -14 -14 -14 -14 -13 -14 -14 -14 -13 -13 -13 -13 -13 -13 -13 -13 -12 -12 -12 -13 -12 -12 -12 -12 -11 -11 -11 -11 -11 -11 -11 -11 -11 -11 -11 -11
-20 -18 -18 -17 -17 -16 -16 -16 -15 -16 -15 -16 -15 -15 -14 -14 -14 -14 -14 -14 -13 -13 -13 -13 -13 -13 -13 -13 -13 -13 -13 -13 -13 -13 -13 -12 -12 -12 -12 -12 -11 -11 -11 -12 -12 -11 -11 -12 -12
-19 -18 -17 -17 -16 -15 -16 -16 -16 -17 -16 -16 -16 -15 -15 -14 -14 -13 -13 -14 -14 -13 -14 -14 -14 -13 -13 -13 -13 -13 -13 -13 -13 -13 -13 -13 -12 -12 -12 -12 -12 -12 -12 -12 -12 -12 -12 -12 -12
-18 -18 -17 -16 -16 -16 -17 -16 -17 -18 -17 -16 -16 -16 -15 -15 -15 -14 -14 -14 -14 -14 -14 -14 -14 -14 -14 -14 -14 -14 -13 -13 -13 -13 -13 -13 -12 -12 -12 -12 -12 -12 -12 -12 -12 -12 -12 -12 -12
-17 -17 -17 -16 -16 -17 -17 -17 -18 -18 -18 -18 -17 -17 -16 -15 -14 -15 -14 -14 -14 -14 -14 -14 -14 -14 -14 -14 -14 -14 -14 -14 -14 -13 -13 -13 -13 -13 -13 -13 -13 -13 -13 -13 -13 -13 -12 -12 -12
-18 -18 -17 -17 -17 -17 -17 -17 -18 -18 -18 -17 -18 -17 -17 -16 -16 -15 -15 -15 -15 -15 -15 -14 -14 -14 -14 -14 -14 -14 -14 -14 -14 -14 -13 -13 -13 -13 -13 -13 -13 -13 -13 -13 -13 -13 -13 -13 -13
-18 -18 -17 -17 -17 -17 -17 -17 -17 -18 -18 -18 -18 -18 -17 -17 -17 -17 -16 -16 -16 -16 -15 -15 -15 -15 -15 -14 -14 -14 -14 -14 -13 -13 -13 -13 -14 -14 -14 -13 -13 -13 -13 -13 -13 -13 -13 -13 -13
-18 -17 -18 -17 -17 -17 -17 -17 -17 -18 -18 -18 -18 -18 -18 -17 -17 -17 -17 -17 -17 -16 -16 -15 -15 -15 -15 -15 -15 -14 -14 -14 -13 -14 -14 -13 -14 -14 -14 -14 -14 -14 -14 -13 -13 -13 -13 -13 -13
Height
5805 5811 5818 5824 5833 5835 5842 5849 5856 5858 5862 5868 5874 5879 5884 5886 5891 5894 5895 5897 5899 5900 5901 5902 5903 5904 5905 5907 5908 5909 5909 5909 5910 5910 5910 5910 5909 5909 5908 5906 5905 5905 5903 5902 5901 5900 5899 5898 5897
5797 5803 5810 5815 5823 5829 5837 5845 5851 5855 5858 5864 5870 5876 5880 5883 5886 5889 5892 5894 5897 5899 5899 5901 5902 5903 5903 5905 5906 5907 5907 5908 5908 5909 5909 5909 5908 5908 5907 5905 5904 5903 5902 5901 5900 5899 5898 5896 5895
5789 5795 5803 5809 5813 5823 5832 5840 5847 5851 5856 5859 5866 5871 5875 5881 5884 5886 5889 5891 5894 5897 5898 5899 5900 5901 5902 5903 5905 5906 5906 5906 5907 5908 5908 5908 5907 5907 5906 5904 5903 5902 5900 5899 5898 5898 5896 5895 5894
5781 5787 5795 5802 5813 5817 5823 5834 5841 5847 5851 5856 5860 5866 5872 5876 5881 5883 5886 5889 5891 5894 5896 5897 5899 5900 5900 5902 5903 5904 5905 5905 5905 5906 5906 5906 5906 5905 5904 5903 5902 5900 5899 5898 5897 5896 5895 5893 5892
5772 5781 5787 5798 5807 5813 5820 5829 5836 5842 5847 5852 5856 5861 5868 5872 5876 5880 5882 5885 5888 5891 5894 5895 5897 5898 5898 5899 5901 5902 5903 5903 5904 5904 5904 5904 5904 5903 5902 5901 5900 5899 5897 5897 5896 5895 5893 5892 5890
5766 5773 5782 5793 5803 5809 5813 5822 5829 5835 5841 5847 5853 5857 5863 5868 5871 5875 5878 5881 5884 5888 5890 5892 5894 5896 5897 5897 5898 5900 5901 5902 5902 5902 5902 5901 5901 5901 5900 5899 5898 5897 5896 5895 5894 5893 5892 5890 5888
5759 5768 5780 5789 5791 5801 5807 5815 5822 5829 5835 5841 5848 5852 5857 5862 5866 5870 5874 5877 5880 5884 5887 5889 5891 5893 5895 5896 5896 5898 5899 5899 5899 5900 5899 5899 5898 5898 5898 5897 5896 5895 5894 5893 5892 5890 5889 5887 5886
5753 5762 5770 5778 5786 5795 5801 5808 5815 5821 5829 5836 5841 5846 5852 5858 5862 5866 5870 5873 5876 5880 5883 5885 5888 5889 5892 5894 5894 5895 5897 5897 5897 5897 5897 5897 5896 5895 5895 5894 5894 5893 5892 5892 5890 5888 5885 5884 5883
5746 5754 5762 5772 5780 5786 5794 5800 5808 5816 5823 5830 5836 5842 5848 5853 5858 5862 5866 5870 5872 5876 5878 5881 5883 5885 5888 5891 5891 5892 5894 5894 5894 5895 5895 5895 5894 5893 5893 5892 5891 5891 5890 5889 5888 5885 5884 5882 5880
5736 5747 5758 5762 5771 5781 5787 5794 5801 5810 5816 5823 5830 5837 5842 5847 5853 5857 5861 5865 5867 5871 5874 5876 5879 5881 5883 5886 5888 5889 5890 5891 5891 5891 5892 5892 5891 5891 5890 5890 5889 5889 5888 5887 5886 5883 5882 5880 5878
5733 5745 5751 5760 5767 5773 5779 5785 5795 5802 5808 5817 5824 5831 5837 5842 5846 5851 5856 5860 5862 5865 5868 5871 5875 5877 5879 5882 5885 5886 5887 5888 5888 5888 5888 5888 5888 5888 5887 5887 5886 5886 5885 5884 5882 5880 5879 5878 5875
5729 5737 5742 5750 5758 5767 5775 5782 5788 5795 5803 5809 5816 5824 5831 5836 5841 5846 5850 5853 5857 5861 5865 5868 5871 5872 5875 5877 5880 5882 5882 5884 5884 5884 5884 5885 5885 5884 5884 5883 5883 5882 5882 5880 5878 5877 5875 5873 5872
5723 5732 5738 5744 5752 5758 5768 5774 5781 5790 5796 5803 5809 5815 5823 5830 5835 5840 5844 5849 5853 5857 5861 5863 5865 5867 5870 5873 5875 5878 5878 5879 5880 5880 5880 5880 5880 5880 5880 5879 5879 5878 5877 5875 5874 5873 5871 5869 5867
5719 5725 5735 5740 5748 5753 5760 5767 5774 5783 5790 5797 5803 5809 5816 5824 5829 5834 5838 5843 5847 5850 5853 5857 5860 5862 5865 5868 5869 5872 5874 5874 5875 5875 5876 5876 5876 5876 5876 5875 5874 5874 5873 5871 5870 5868 5866 5864 5862
5711 5719 5724 5732 5742 5749 5755 5759 5773 5777 5783 5790 5797 5803 5810 5817 5822 5827 5832 5836 5839 5843 5847 5850 5855 5857 5860 5862 5864 5865 5868 5869 5870 5870 5870 5871 5871 5871 5871 5870 5870 5869 5868 5867 5865 5864 5862 5859 5857
5705 5712 5718 5727 5734 5742 5746 5761 5767 5767 5774 5783 5789 5796 5802 5811 5817 5821 5825 5830 5834 5838 5842 5844 5848 5851 5854 5856 5858 5859 5861 5863 5864 5864 5865 5865 5866 5866 5866 5865 5864 5864 5864 5862 5861 5858 5856 5853 5851
5698 5709 5718 5723 5729 5736 5744 5749 5751 5759 5768 5777 5783 5789 5795 5803 5811 5816 5820 5824 5828 5831 5835 5839 5840 5843 5847 5849 5851 5853 5855 5855 5857 5858 5858 5860 5860 5861 5861 5860 5859 5859 5858 5856 5855 5852 5850 5847 5844
5700 5706 5715 5722 5728 5735 5738 5744 5751 5757 5763 5770 5775 5781 5789 5796 5802 5810 5814 5818 5822 5825 5828 5832 5833 5835 5839 5843 5844 5846 5849 5849 5850 5852 5853 5854 5854 5855 5854 5854 5853 5852 5851 5849 5848 5846 5843 5840 5838
5696 5704 5712 5719 5724 5729 5733 5738 5745 5751 5757 5762 5768 5775 5782 5789 5794 5801 5807 5811 5814 5818 5821 5825 5827 5828 5831 5834 5837 5840 5842 5843 5844 5845 5847 5847 5847 5848 5848 5847 5846 5845 5843 5842 5840 5838 5836 5834 5831
5694 5701 5709 5716 5720 5725 5728 5734 5738 5747 5753 5755 5762 5768 5776 5781 5787 5792 5797 5802 5806 5810 5813 5818 5821 5823 5825 5828 5832 5834 5836 5837 5838 5838 5839 5840 5840 5840 5840 5840 5839 5838 5836 5834 5833 5830 5829 5827 5823
5692 5699 5706 5711 5716 5719 5724 5730 5739 5744 5748 5752 5759 5765 5767 5774 5779 5783 5788 5793 5798 5802 5805 5808 5812 5816 5819 5821 5824 5827 5828 5830 5830 5831 5831 5832 5833 5832 5832 5831 5831 5830 5829 5827 5825 5823 5821 5818 5816
5690 5697 5704 5709 5714 5718 5722 5727 5733 5738 5745 5749 5754 5756 5760 5763 5770 5774 5779 5784 5788 5793 5798 5801 5804 5807 5810 5812 5814 5817 5819 5820 5821 5822 5823 5824 5824 5824 5824 5823 5823 5822 5821 5819 5817 5815 5813 5810 5808
5689 5695 5701 5706 5710 5714 5718 5721 5729 5734 5742 5744 5745 5748 5751 5755 5761 5766 5771 5775 5779 5785 5789 5792 5794 5796 5799 5803 5805 5807 5809 5811 5812 5813 5814 5814 5815 5815 5816 5815 5814 5813 5812 5811 5809 5807 5804 5801 5799
5685 5692 5698 5704 5708 5711 5713 5717 5723 5728 5731 5733 5736 5738 5742 5746 5751 5755 5759 5766 5772 5776 5779 5782 5785 5787 5790 5793 5795 5798 5799 5801 5802 5804 5805 5806 5806 5806 5807 5806 5806 5804 5803 5802 5800 5797 5794 5792 5789
5683 5689 5695 5701 5704 5708 5711 5712 5716 5719 5721 5724 5729 5733 5736 5740 5744 5747 5753 5757 5762 5766 5770 5772 5775 5778 5780 5782 5785 5787 5788 5790 5792 5793 5795 5796 5796 5796 5797 5796 5795 5794 5793 5791 5790 5788 5785 5783 5780
5682 5688 5692 5696 5700 5704 5708 5706 5713 5715 5714 5717 5720 5724 5729 5732 5736 5740 5744 5748 5752 5756 5759 5763 5765 5767 5770 5772 5774 5776 5778 5780 5782 5783 5784 5785 5785 5785 5785 5785 5785 5784 5783 5782 5780 5778 5776 5773 5770
5679 5685 5690 5693 5697 5702 5704 5706 5710 5711 5713 5714 5716 5718 5723 5726 5728 5731 5733 5736 5741 5747 5749 5752 5755 5757 5759 5762 5764 5766 5768 5769 5771 5772 5773 5774 5774 5775 5775 5775 5775 5774 5773 5772 5770 5769 5767 5763 5759
5677 5683 5688 5691 5695 5698 5699 5702 5704 5707 5708 5710 5711 5712 5714 5718 5720 5721 5724 5727 5730 5733 5737 5741 5744 5747 5749 5752 5754 5756 5757 5759 5760 5761 5762 5763 5763 5764 5765 5765 5764 5764 5763 5762 5761 5759 5756 5752 5748
5677 5680 5684 5688 5691 5693 5696 5698 5700 5702 5703 5705 5705 5707 5708 5710 5713 5715 5718 5720 5722 5725 5727 5730 5733 5735 5739 5741 5743 5746 5747 5749 5750 5751 5751 5752 5752 5753 5754 5754 5754 5753 5752 5751 5749 5747 5744 5741 5738
5674 5678 5681 5684 5688 5690 5692 5695 5696 5697 5699 5700 5701 5703 5705 5706 5708 5709 5712 5714 5715 5717 5718 5720 5723 5725 5728 5731 5733 5734 5736 5737 5739 5740 5740 5741 5742 5742 5742 5742 5742 5742 5741 5740 5738 5735 5732 5730 5729
Wind_Speed
54 56 56 49 50 51 48 44 42 41 44 42 39 34 31 31 28 26 21 18 17 16 13 13 11 10 9 9 7 6 5 5 4 3 2 3 4 6 6 7 8 8 9 9 9 9 10 10 10
52 55 60 58 54 54 50 46 43 44 45 43 41 37 34 32 30 27 24 23 19 16 14 13 11 10 8 9 8 7 7 5 3 3 3 5 6 7 7 7 8 8 8 9 10 10 10 10 10
52 57 57 59 59 56 52 49 45 43 42 46 42 40 37 33 31 28 26 25 20 18 14 13 12 10 8 9 9 9 7 5 4 4 4 5 7 8 8 8 9 9 10 10 11 12 12 11 12
53 57 59 61 59 56 56 49 46 45 45 40 42 42 38 36 33 31 30 26 23 19 15 14 13 12 9 9 10 9 8 6 5 5 5 7 8 9 9 9 9 9 11 12 12 12 12 12 12
56 56 61 58 56 59 53 50 48 47 46 46 40 41 38 37 36 33 32 28 25 21 18 16 14 14 12 11 10 10 8 6 6 6 7 8 8 10 10 10 10 11 12 12 12 12 12 12 13
55 55 58 58 60 55 54 51 50 50 49 46 45 38 39 39 37 35 34 31 30 26 21 19 17 17 15 14 11 11 9 7 7 8 8 9 10 11 11 12 12 12 12 13 13 13 13 13 14
59 58 54 53 56 57 59 52 52 51 51 50 46 45 43 41 39 38 37 33 32 28 24 22 21 19 17 17 14 12 10 8 8 9 10 11 12 13 13 13 13 13 13 13 13 14 14 15 16
59 54 55 56 56 59 59 53 52 53 52 51 50 49 47 45 42 40 38 35 34 30 26 24 23 21 20 19 17 14 12 11 9 10 11 12 14 15 15 15 15 13 13 14 14 15 16 17 18
51 52 59 48 52 56 60 58 53 53 53 51 51 50 48 46 44 42 39 36 34 29 27 25 25 23 22 22 20 18 16 14 12 12 12 13 13 14 15 16 15 15 15 16 17 17 17 18 19
58 51 51 55 54 54 58 59 59 52 52 52 50 50 49 48 46 44 42 39 36 32 29 26 26 25 24 24 22 20 17 15 14 13 14 14 14 15 15 15 15 16 17 17 17 17 18 19 20
55 50 45 60 50 55 57 58 56 60 52 53 51 49 49 49 48 46 43 38 37 36 32 29 27 27 26 25 23 21 18 16 16 16 16 16 16 16 16 16 16 17 17 17 18 18 19 21 21
55 51 51 54 62 50 56 53 55 58 61 52 52 51 50 49 47 45 43 42 39 37 33 30 29 28 27 26 25 22 20 19 18 18 18 18 18 18 18 18 18 18 18 18 19 21 22 23 23
52 55 53 51 52 61 52 52 48 53 60 60 52 51 51 50 48 46 45 42 40 38 35 34 32 31 29 27 25 24 22 21 20 21 20 20 20 20 20 21 21 21 20 21 22 23 24 25 26
52 54 50 49 46 55 65 56 52 44 51 62 59 51 51 51 48 46 46 44 41 39 37 36 36 34 32 30 28 26 26 24 23 23 24 23 23 23 23 23 23 22 23 24 25 25 26 27 28
53 54 60 53 49 45 43 60 54 47 46 52 61 60 50 51 50 48 46 44 42 40 39 38 38 35 34 33 31 30 29 28 26 26 26 25 25 25 26 25 25 25 25 26 27 27 28 29 31
46 46 57 38 46 39 45 48 56 47 49 51 53 61 58 48 49 48 47 45 42 41 40 41 39 38 37 36 34 33 31 30 29 28 27 27 28 28 27 27 28 28 28 29 29 30 31 32 34
48 40 43 38 39 42 38 42 56 52 49 49 54 56 59 54 46 47 46 45 43 42 42 42 44 41 41 39 37 35 33 31 31 31 30 31 31 31 30 30 31 30 30 31 31 32 33 35 37
51 45 34 37 40 39 34 42 45 42 45 50 51 54 54 57 52 47 47 46 43 42 41 44 44 47 41 41 38 37 36 35 35 35 35 34 33 32 31 31 33 33 33 33 33 35 37 39 41
49 45 42 34 36 48 38 35 45 45 36 48 50 50 49 49 56 52 49 47 45 45 42 42 40 45 47 42 40 39 39 39 38 39 39 38 37 36 35 34 35 36 36 36 37 38 40 42 43
45 42 39 37 29 31 40 43 34 39 42 41 50 49 49 46 51 56 53 50 48 46 47 45 42 41 39 37 42 42 43 43 42 41 42 43 41 39 38 37 36 36 37 38 41 43 43 43 45
44 40 36 34 32 30 33 45 43 36 32 38 38 57 52 48 47 46 47 54 53 50 48 47 46 45 44 44 42 45 44 45 46 46 45 45 44 42 41 39 38 39 42 42 44 44 44 45 45
41 38 33 30 34 35 36 41 47 46 35 33 35 41 54 58 52 52 49 49 47 46 46 50 50 49 46 45 46 50 49 49 48 47 46 45 44 43 42 41 42 45 46 46 45 45 45 46 42
35 35 32 27 25 28 33 36 38 37 40 40 39 40 41 53 61 57 55 52 50 48 47 47 47 50 53 54 54 51 51 50 47 46 46 46 46 46 44 46 47 47 47 45 45 45 45 41 42
34 29 30 29 28 25 26 29 32 33 34 40 43 39 41 45 53 60 62 54 53 50 50 49 50 52 52 51 50 50 51 52 53 52 50 50 49 47 49 49 47 46 45 45 46 44 44 44 45
30 31 30 31 30 28 22 29 28 29 36 37 45 38 38 41 48 52 53 59 58 54 51 49 49 52 53 53 49 48 47 48 48 50 52 53 53 51 48 46 45 45 46 45 44 45 45 45 47
30 31 31 33 30 26 21 26 22 26 26 33 34 36 36 41 36 41 51 49 52 53 53 51 50 45 45 45 45 46 46 46 46 47 48 47 47 46 47 47 46 45 44 43 44 46 48 49 50
30 29 30 30 30 25 22 22 22 23 23 18 30 31 37 37 37 39 36 40 53 57 59 53 49 47 46 46 46 45 45 47 48 49 49 48 48 48 47 46 45 44 44 45 47 48 50 50 47
29 31 29 26 25 23 22 20 20 23 28 25 21 25 32 33 31 32 35 40 41 33 37 48 52 50 48 45 44 45 46 47 48 49 48 47 46 46 45 45 45 45 46 47 48 49 51 46 43
27 28 28 26 26 24 22 21 19 18 19 23 26 27 27 29 33 34 34 35 36 35 36 41 46 46 47 48 48 49 49 50 50 51 50 49 47 46 46 47 47 47 47 49 50 49 45 43 42
24 27 27 28 28 27 27 25 23 24 23 22 22 24 27 29 32 32 33 35 36 37 41 44 48 47 50 51 50 49 48 48 50 51 50 49 48 48 48 47 46 47 49 50 48 44 41 41 42
Wind_Direction
219 221 215 206 209 211 212 209 208 208 204 208 212 212 210 208 214 219 217 222 222 228 229 234 232 235 237 256 257 254 255 237 232 262 295 323 331 326 327 328 333 333 333 331 323 324 323 319 316
219 215 221 203 208 210 211 210 207 208 209 208 211 212 213 212 213 218 217 219 222 231 235 240 237 240 250 260 250 235 232 230 242 267 297 308 317 319 325 333 332 331 327 325 323 320 318 316 319
217 217 217 218 201 208 211 210 209 210 212 209 208 213 214 212 215 215 218 219 219 227 236 243 245 246 258 250 238 224 215 216 238 258 279 292 307 317 326 329 331 327 325 324 323 321 321 322 325
217 216 216 218 216 204 211 209 209 211 212 213 206 212 211 211 213 217 219 221 219 225 232 238 245 250 250 231 224 220 219 216 235 258 279 291 306 314 321 324 325 324 327 323 321 322 322 321 322
216 215 219 220 219 208 208 210 209 210 214 213 212 212 211 212 213 217 223 226 226 222 224 237 240 245 239 229 216 217 220 226 235 253 270 289 305 314 320 322 322 326 327 321 321 318 318 319 320
214 216 217 218 222 219 208 208 211 210 212 215 212 211 212 214 215 220 226 228 231 227 221 229 232 234 231 227 221 226 231 234 247 264 277 290 302 311 319 321 321 322 323 321 321 318 318 320 321
208 217 215 217 218 218 215 209 211 211 213 212 214 213 213 215 217 222 226 229 232 232 224 225 230 224 225 224 220 228 234 246 261 275 286 295 303 310 315 317 316 318 318 316 315 314 315 315 315
209 213 212 216 216 215 221 211 210 212 213 213 214 215 215 217 221 224 229 233 235 235 232 228 230 220 221 222 219 222 229 237 253 267 279 289 299 306 311 313 311 313 315 312 311 311 312 311 312
210 210 206 212 216 214 215 215 209 212 214 216 216 217 217 219 222 226 229 233 236 235 233 231 228 221 219 222 220 220 227 236 244 257 267 277 285 294 302 306 309 311 312 309 308 310 309 308 310
206 208 211 208 213 214 213 218 211 211 215 216 217 217 219 221 222 226 228 231 234 235 232 232 228 224 221 223 225 225 226 238 247 254 266 273 282 289 296 298 301 303 304 303 303 305 305 305 307
200 201 210 210 206 213 211 215 220 210 216 215 217 217 219 222 224 226 230 233 235 232 227 228 228 224 224 226 229 234 234 241 250 258 266 272 279 285 290 293 294 296 300 300 301 301 301 302 304
208 207 209 210 214 208 214 215 215 219 212 218 216 217 218 221 224 226 229 230 235 238 236 229 226 226 227 228 230 234 240 247 254 261 268 274 279 283 289 291 293 295 296 297 299 299 300 299 300
206 206 206 212 212 217 212 212 216 220 221 216 221 217 217 219 222 224 226 229 233 238 236 228 225 227 228 231 234 239 242 249 256 263 268 272 275 280 287 291 293 294 295 295 297 297 298 297 298
203 206 211 216 212 216 219 217 215 224 223 220 220 223 218 217 220 224 226 227 230 234 236 233 227 227 228 230 231 240 247 251 256 264 270 273 275 279 283 287 290 291 291 293 294 294 294 295 298
200 209 208 211 205 207 216 220 217 226 221 224 224 224 225 218 217 222 226 227 226 229 232 234 232 227 227 230 233 237 245 252 257 262 266 270 274 277 282 286 286 286 288 291 291 292 295 297 299
205 211 219 215 201 205 211 216 214 223 224 222 226 225 226 227 221 220 225 228 228 229 233 234 235 232 230 231 234 240 245 251 258 261 264 270 275 277 280 282 283 287 289 289 289 293 297 299 300
206 206 212 220 221 213 209 204 212 217 222 223 224 226 227 225 229 228 226 228 229 231 234 239 232 234 236 236 237 242 248 253 256 259 265 270 273 275 279 281 282 284 284 285 289 294 297 298 300
206 212 207 217 228 217 200 210 210 216 218 218 222 225 229 230 223 230 231 232 232 234 237 240 244 227 236 244 242 245 249 253 256 261 265 268 271 275 276 278 279 283 284 286 289 293 295 297 298
208 214 214 218 221 223 226 212 214 217 220 217 220 223 226 229 231 221 232 233 234 237 239 244 248 243 235 236 244 248 252 256 259 263 267 269 271 273 274 276 279 282 285 287 290 292 293 295 296
207 214 213 212 212 219 229 220 205 215 215 221 220 225 227 229 229 229 224 231 234 237 241 244 246 249 254 253 253 253 255 258 261 263 267 271 273 274 276 277 279 282 286 288 289 291 292 294 296
208 212 216 218 215 215 220 229 227 204 211 219 228 223 229 228 227 227 228 229 232 236 241 245 247 250 252 255 255 256 258 260 262 263 266 269 271 274 277 279 280 284 286 285 287 289 291 294 295
208 213 211 214 225 226 229 235 236 231 237 224 223 233 230 230 228 231 233 236 239 241 243 247 248 247 249 250 250 252 255 258 262 265 267 269 271 273 276 277 280 282 282 284 286 288 291 293 291
205 211 214 217 223 231 231 236 230 235 234 239 232 232 235 231 234 235 238 238 241 242 245 246 246 247 250 253 259 261 259 257 260 264 266 268 269 271 272 275 277 277 280 283 285 287 290 290 292
198 207 215 219 224 232 235 243 232 228 223 230 230 232 234 233 233 233 236 234 237 243 246 245 246 248 250 251 255 257 257 258 258 256 260 264 265 267 269 273 272 278 281 282 285 287 290 290 291
200 208 213 218 223 227 229 239 240 232 232 236 234 230 235 239 238 236 239 237 240 241 242 242 245 254 255 255 254 255 256 256 257 258 260 261 263 266 268 271 275 279 282 283 284 286 287 289 293
196 204 211 218 220 229 238 239 238 227 230 231 240 239 245 236 233 233 232 232 236 237 236 245 247 247 250 253 255 256 255 257 259 260 261 263 266 268 271 274 278 279 280 280 280 282 287 292 293
209 213 215 218 223 234 239 244 239 230 231 236 227 232 245 252 248 245 230 228 229 237 242 241 243 246 251 254 255 255 256 258 260 262 263 264 267 269 271 273 275 276 276 277 280 285 288 292 291
206 208 216 222 229 234 238 243 242 242 240 245 237 228 230 238 241 244 250 254 250 242 245 242 244 247 248 247 250 253 255 257 259 260 262 263 266 268 270 271 272 274 277 278 282 286 290 289 287
204 207 216 224 231 231 237 244 246 242 234 239 240 240 237 238 241 243 244 242 243 250 254 252 248 243 246 248 252 255 256 258 260 260 261 263 264 266 268 270 273 275 277 280 284 287 287 286 286
214 214 219 226 234 242 247 242 243 248 250 241 244 245 246 245 250 250 249 249 250 251 249 245 248 253 251 253 253 255 257 260 262 261 262 263 263 264 266 270 271 273 277 283 284 283 283 284 285